This is the latest recevied weather packets stored in our database for station/object KR4KUV. If no packets are shown the sender has not sent any weather packets the latest 10 day(s).
| Time | Temp. | Humidity | Pressure | Rain* | Wind** | Luminosity | Snow |
|---|---|---|---|---|---|---|---|
| 1787579131 | 24.44° C | 77% | 1018.5 hPa | 0 mm | - | 49 W/m² | - |
| 1787578826 | 23.89° C | 75% | 1018.3 hPa | 0 mm | - | 145 W/m² | - |
| 1787578522 | 23.89° C | 75% | 1018.5 hPa | 0 mm | - | 52 W/m² | - |
| 1787578221 | 23.89° C | 78% | 1018.3 hPa | 0 mm | - | 187 W/m² | - |
| 1787577917 | 23.33° C | 77% | 1018.3 hPa | 0 mm | - | 113 W/m² | - |
| 1787577612 | 23.33° C | 77% | 1018.2 hPa | 0 mm | - | 87 W/m² | - |
| 1787577308 | 22.78° C | 77% | 1018.3 hPa | 0 mm | - | 59 W/m² | - |
| 1787577004 | 22.78° C | 78% | 1018.3 hPa | 0 mm | - | 49 W/m² | - |
| 1787576699 | 22.78° C | 77% | 1018.4 hPa | 0 mm | - | 167 W/m² | - |
| 1787576395 | 22.78° C | 79% | 1018.4 hPa | 0 mm | - | 62 W/m² | - |
| 1787576091 | 22.22° C | 80% | 1018.3 hPa | 0 mm | - | 67 W/m² | - |
| 1787575785 | 22.22° C | 79% | 1018.4 hPa | 0 mm | - | 83 W/m² | - |
| 1787575482 | 21.67° C | 82% | 1018.3 hPa | 0 mm | - | 71 W/m² | - |
| 1787575177 | 21.11° C | 84% | 1018.4 hPa | 0 mm | - | 42 W/m² | - |
| 1787574871 | 21.11° C | 87% | 1018.3 hPa | 0 mm | - | 40 W/m² | - |
| 1787574566 | 20.56° C | 89% | 1018.2 hPa | 0 mm | - | 38 W/m² | - |
| 1787574265 | 20° C | 92% | 1018.3 hPa | 0 mm | - | 42 W/m² | - |
| 1787573959 | 20.56° C | 91% | 1018.4 hPa | 0 mm | - | 38 W/m² | - |
| 1787573659 | 21.11° C | 89% | 1018 hPa | 0 mm | - | 34 W/m² | - |
| 1787573354 | 20.56° C | 91% | 1018.1 hPa | 0 mm | - | 34 W/m² | - |
| 1787573050 | 20° C | 94% | 1018.2 hPa | 0 mm | - | 39 W/m² | - |
| 1787572741 | 19.44° C | 96% | 1018.1 hPa | 0 mm | - | 36 W/m² | - |
| 1787572436 | 19.44° C | 98% | 1018.2 hPa | 0 mm | - | 33 W/m² | - |
| 1787572131 | 19.44° C | 99% | 1018.3 hPa | 0 mm | - | 31 W/m² | - |
| 1787571830 | 18.33° C | 99% | 1018.4 hPa | 0 mm | - | 28 W/m² | - |
* Rain latest hour (hover to see other rain measurements)
** Current wind speed in m/s (hover to see current wind gust speed)